Weather History for KMAI - June, 2013

Change the Weather History Date:

Wednesday, June 5, 2013

  Actual Average Record
Temperature  
Mean Temperature 79 °F 79 °F  
Max Temperature 88 °F 90 °F 100 °F (2011)
Min Temperature 70 °F 69 °F 63 °F (2006)
Degree Days  
Heating Degree Days 0    
Month to date heating degree days 0  
Since 1 June heating degree days 0  
Since 1 July heating degree days 1377  
Cooling Degree Days 14    
Month to date cooling degree days 79  
Year to date cooling degree days 515  
Since 1 June cooling degree days 79  
Growing Degree Days 28 (Base 50)    
Moisture  
Dew Point 71 °F    
Average Humidity 72    
Maximum Humidity 93    
Minimum Humidity 50    
Precipitation  
Precipitation 0.64 in 0.17 in 0.91 in (2012)
Month to date precipitation 1.09 0.92  
Year to date precipitation 21.99 23.14  
Sea Level Pressure  
Sea Level Pressure 29.95 in    
Wind  
Wind Speed 4 mph (SE)    
Max Wind Speed 14 mph    
Max Gust Speed 18 mph    
Visibility 9 miles    
Events Fog , Rain , Thunderstorm    
T = Trace of Precipitation, MM = Missing Value Source: NWS Daily Summary

Daily Weather History Graph

Daily Weather History Graph

Search for Another Location

Airport or City:

Trip Planner

Search our weather history database for the weather conditions in past years. The results will help you decide how hot, cold, wet, or windy it might be!

Date:

Astronomy

Jun. 05, 2013 Rise Set
Actual Time 5:37 AM CDT 7:41 PM CDT
Civil Twilight 5:09 AM CDT 8:08 PM CDT
Nautical Twilight 4:36 AM CDT 8:42 PM CDT
Astronomical Twilight 4:00 AM CDT 9:18 PM CDT
Moon 3:31 AM CDT (6/5) 5:14 PM CDT (6/5)
Length of Visible Light 14h 59m
Length of Day
14h 04m
Waning Crescent, 8% of the Moon is Illuminated
Jun 5
Waning Crescent
Jun 8
New
Jun 16
First Quarter
Jun 23
Full
Jun 29
Last Quarter

Hourly Weather History & Observations

Time (CDT) Temp. Heat Index Dew Point Humidity Pressure Visibility Wind Dir Wind Speed Gust Speed Precip Events Conditions
12:53 AM 73.0 °F - 72.0 °F 96% 29.99 in 10.0 mi East 4.6 mph - N/A   Scattered Clouds
1:22 AM 73.4 °F - 71.6 °F 94% 29.99 in 10.0 mi ENE 9.2 mph - N/A   Overcast
1:44 AM 73.4 °F - 71.6 °F 94% 29.99 in 10.0 mi ENE 5.8 mph - N/A   Overcast
1:53 AM 73.9 °F - 72.0 °F 93% 29.98 in 10.0 mi East 4.6 mph - N/A   Overcast
2:27 AM 73.4 °F - 71.6 °F 94% 29.98 in 10.0 mi ENE 10.4 mph - N/A   Overcast
2:53 AM 73.0 °F - 69.1 °F 87% 29.98 in 10.0 mi East 5.8 mph - N/A   Overcast
3:06 AM 73.4 °F - 69.8 °F 88% 29.97 in 10.0 mi Calm Calm - N/A   Overcast
3:13 AM 73.4 °F - 69.8 °F 88% 29.97 in 10.0 mi Calm Calm - N/A   Mostly Cloudy
3:53 AM 72.0 °F - 69.1 °F 91% 29.96 in 10.0 mi Calm Calm - N/A   Clear
4:53 AM 71.1 °F - 69.1 °F 93% 29.94 in 10.0 mi Calm Calm - N/A   Clear
5:38 AM 69.8 °F - 69.8 °F 100% 29.96 in 10.0 mi Calm Calm - N/A   Scattered Clouds
5:53 AM 71.1 °F - 69.1 °F 93% 29.96 in 10.0 mi Calm Calm - N/A   Mostly Cloudy
6:53 AM 72.0 °F - 69.1 °F 91% 29.97 in 10.0 mi Calm Calm - N/A   Overcast
7:53 AM 75.0 °F - 71.1 °F 87% 29.97 in 10.0 mi SSE 3.5 mph - N/A   Mostly Cloudy
8:11 AM 77.0 °F - 71.6 °F 83% 29.97 in 10.0 mi South 6.9 mph - N/A   Scattered Clouds
8:53 AM 81.0 °F 85.2 °F 72.0 °F 74% 29.96 in 10.0 mi South 8.1 mph - N/A   Clear
9:53 AM 82.9 °F 87.0 °F 70.0 °F 65% 29.98 in 10.0 mi SSE 5.8 mph - N/A   Scattered Clouds
10:10 AM 82.4 °F 86.3 °F 69.8 °F 66% 29.98 in 10.0 mi South 5.8 mph - N/A   Mostly Cloudy
10:24 AM 84.2 °F 88.4 °F 69.8 °F 62% 29.98 in 10.0 mi South 6.9 mph - N/A   Overcast
10:53 AM 84.9 °F 89.4 °F 70.0 °F 61% 29.97 in 10.0 mi Variable 4.6 mph - N/A   Mostly Cloudy
11:53 AM 87.1 °F 89.9 °F 66.9 °F 51% 29.96 in 10.0 mi SSW 6.9 mph - N/A   Mostly Cloudy
12:53 PM 84.0 °F 89.6 °F 72.0 °F 67% 29.94 in 9.0 mi ENE 9.2 mph - 0.00 in Rain Light Rain
1:22 PM 75.2 °F - 71.6 °F 89% 29.95 in 4.0 mi SE 10.4 mph 17.3 mph 0.03 in Rain , Thunderstorm Light Rain
1:24 PM 75.2 °F - 71.6 °F 89% 29.95 in 1.8 mi SE 13.8 mph 18.4 mph 0.09 in Rain , Thunderstorm Rain
1:33 PM 73.4 °F - 71.6 °F 94% 29.96 in 0.5 mi East 5.8 mph 17.3 mph 0.46 in Fog , Rain , Thunderstorm Heavy Thunderstorms and Rain
1:44 PM 73.4 °F - 71.6 °F 94% 29.96 in 2.0 mi East 6.9 mph - 0.55 in Rain , Thunderstorm Light Thunderstorms and Rain
1:48 PM 73.4 °F - 71.6 °F 94% 29.96 in 8.0 mi East 4.6 mph - 0.55 in Rain , Thunderstorm Light Thunderstorms and Rain
1:53 PM 73.9 °F - 72.0 °F 93% 29.96 in 10.0 mi Calm Calm - 0.56 in Rain , Thunderstorm Light Thunderstorms and Rain
2:07 PM 75.2 °F - 71.6 °F 89% 29.96 in 10.0 mi ENE 3.5 mph - 0.00 in Rain Light Rain
2:30 PM 75.2 °F - 73.4 °F 94% 29.96 in 10.0 mi Calm Calm - 0.00 in Thunderstorm Mostly Cloudy
2:45 PM 77.0 °F - 73.4 °F 89% 29.94 in 10.0 mi North 3.5 mph - 0.00 in   Mostly Cloudy
2:53 PM 75.9 °F - 73.9 °F 94% 29.94 in 10.0 mi North 6.9 mph - 0.00 in Rain Light Rain
3:25 PM 80.6 °F 85.4 °F 73.4 °F 79% 29.92 in 10.0 mi NNE 6.9 mph - 0.00 in   Overcast
3:53 PM 79.0 °F - 72.0 °F 79% 29.91 in 10.0 mi ENE 3.5 mph - 0.00 in   Mostly Cloudy
4:53 PM 81.0 °F 84.9 °F 71.1 °F 72% 29.90 in 10.0 mi South 5.8 mph - N/A   Overcast
5:53 PM 77.0 °F - 73.0 °F 88% 29.89 in 9.0 mi South 8.1 mph - 0.00 in Rain Light Rain
6:26 PM 77.0 °F - 71.6 °F 83% 29.90 in 10.0 mi WSW 4.6 mph - 0.00 in Thunderstorm Overcast
6:41 PM 75.2 °F - 73.4 °F 94% 29.91 in 10.0 mi West 4.6 mph - 0.00 in   Overcast
6:53 PM 75.9 °F - 73.0 °F 91% 29.91 in 10.0 mi West 4.6 mph - 0.00 in   Overcast
7:02 PM 75.2 °F - 73.4 °F 94% 29.91 in 10.0 mi WNW 5.8 mph - N/A   Overcast
7:41 PM 75.2 °F - 71.6 °F 89% 29.91 in 10.0 mi West 3.5 mph - N/A   Overcast
7:53 PM 73.9 °F - 72.0 °F 93% 29.91 in 10.0 mi WSW 4.6 mph - N/A   Overcast
8:53 PM 73.9 °F - 72.0 °F 93% 29.91 in 10.0 mi Calm Calm - N/A   Overcast
9:53 PM 73.9 °F - 72.0 °F 93% 29.92 in 10.0 mi Calm Calm - N/A   Overcast
10:53 PM 73.9 °F - 72.0 °F 93% 29.93 in 10.0 mi Calm Calm - N/A   Overcast
11:01 PM 73.4 °F - 71.6 °F 94% 29.94 in 10.0 mi SSE 6.9 mph - N/A   Overcast
11:13 PM 73.4 °F - 69.8 °F 88% 29.94 in 10.0 mi SSE 6.9 mph - N/A   Overcast
11:53 PM 72.0 °F - 69.1 °F 91% 29.92 in 5.0 mi South 4.6 mph - 0.01 in Rain Rain